IU2VCR-13 Weather Reports


time (UTC)temp
C
wind
direction
speed
KPH
gust
KPH
rain 1hr
cm
rain 24hr
cm
rain mn
cm
humidity
%
barometer
mb
20260904180126 33 193 8.0 11.3 0.00 0.00 0.00 42 1017.6
20260904175122 34 194 8.0 11.3 0.00 0.00 0.00 41 1017.6
20260904174120 35 186 6.4 11.3 0.00 0.00 0.00 38 1017.5
20260904173116 36 182 8.0 14.5 0.00 0.00 0.00 36 1017.5
20260904172110 38 198 6.4 9.7 0.00 0.00 0.00 33 1017.6
20260904171108 38 198 6.4 9.7 0.00 0.00 0.00 33 1017.6
20260904170106 38 190 4.8 8.0 0.00 0.00 0.00 33 1017.7
20260904165104 39 191 6.4 11.3 0.00 0.00 0.00 33 1017.7
20260904164100 39 191 6.4 11.3 0.00 0.00 0.00 33 1017.7
20260904163055 39 225 3.2 6.4 0.00 0.00 0.00 33 1017.7
20260904162052 39 90 1.6 3.2 0.00 0.00 0.00 33 1017.8
20260904161050 39 90 1.6 3.2 0.00 0.00 0.00 33 1017.8
20260904160045 39 64 3.2 3.2 0.00 0.00 0.00 34 1017.9
20260904153032 38 336 1.6 6.4 0.00 0.00 0.00 34 1018.1
20260904152026 38 212 4.8 11.3 0.00 0.00 0.00 35 1018.1
20260904151025 37 45 1.6 6.4 0.00 0.00 0.00 35 1018.1
20260904150019 37 54 3.2 8.0 0.00 0.00 0.00 37 1018.3
20260904145017 37 90 1.6 8.0 0.00 0.00 0.00 36 1018.3
20260904144012 37 42 9.7 20.9 0.00 0.00 0.00 37 1018.4
20260904143010 36 284 3.2 12.9 0.00 0.00 0.00 38 1018.4
20260904142006 36 203 3.2 4.8 0.00 0.00 0.00 39 1018.5
20260904141003 36 169 3.2 6.4 0.00 0.00 0.00 39 1018.6
20260904135957 36 183 3.2 3.2 0.00 0.00 0.00 39 1018.7
20260904134954 35 90 1.6 3.2 0.00 0.00 0.00 40 1018.7
20260904133950 35 123 3.2 6.4 0.00 0.00 0.00 40 1018.8
20260904132946 35 210 1.6 6.4 0.00 0.00 0.00 40 1018.9
20260904131940 35 270 3.2 11.3 0.00 0.00 0.00 40 1019.0
20260904130938 35 159 3.2 9.7 0.00 0.00 0.00 41 1019.0
20260904125933 34 175 3.2 6.4 0.00 0.00 0.00 42 1019.3
20260904124930 33 191 3.2 6.4 0.00 0.00 0.00 43 1019.4
20260904123927 33 105 3.2 6.4 0.00 0.00 0.00 44 1019.5
20260904122923 32 333 3.2 8.0 0.00 0.00 0.00 43 1019.6
20260904121918 32 104 3.2 6.4 0.00 0.00 0.00 44 1019.6
20260904120915 32 175 1.6 6.4 0.00 0.00 0.00 45 1019.8
20260904115912 32 164 4.8 6.4 0.00 0.00 0.00 45 1019.8
20260904114910 31 171 3.2 6.4 0.00 0.00 0.00 46 1019.9
20260904113905 31 180 1.6 6.4 0.00 0.00 0.00 46 1020.0
20260904112859 31 198 3.2 9.7 0.00 0.00 0.00 47 1020.1
20260904111855 31 90 1.6 6.4 0.00 0.00 0.00 48 1020.2
20260904110852 31 70 3.2 8.0 0.00 0.00 0.00 48 1020.2
20260904105847 30 211 3.2 9.7 0.00 0.00 0.00 48 1020.3
20260904104846 30 237 3.2 6.4 0.00 0.00 0.00 48 1020.4
20260904103842 30 270 3.2 8.0 0.00 0.00 0.00 48 1020.5
20260904102838 30 310 1.6 6.4 0.00 0.00 0.00 49 1020.6
20260904101835 30 213 3.2 14.5 0.00 0.00 0.00 51 1020.7
20260904100832 29 180 3.2 6.4 0.00 0.00 0.00 51 1020.8
20260904095830 29 168 4.8 11.3 0.00 0.00 0.00 52 1020.8
20260904094826 28 176 4.8 11.3 0.00 0.00 0.00 52 1020.9
20260904085809 27 182 3.2 11.3 0.00 0.00 0.00 54 1021.1
20260904084806 27 270 1.6 6.4 0.00 0.00 0.00 55 1021.1
20260904083802 26 270 1.6 4.8 0.00 0.00 0.00 55 1021.1
20260904082756 26 270 1.6 3.2 0.00 0.00 0.00 55 1021.0
20260904081752 26 270 3.2 6.4 0.00 0.00 0.00 56 1021.0
20260904080746 26 191 1.6 4.8 0.00 0.00 0.00 56 1021.1
20260904075740 26 191 1.6 4.8 0.00 0.00 0.00 57 1021.0
20260904074736 25 184 1.6 3.2 0.00 0.00 0.00 59 1020.9
20260904073730 25 138 3.2 6.4 0.00 0.00 0.00 61 1020.9
20260904072726 24 145 1.6 4.8 0.00 0.00 0.00 62 1020.8
20260904071725 24 315 1.6 3.2 0.00 0.00 0.00 61 1020.8
20260904062703 22 90 1.6 1.6 0.00 0.00 0.00 65 1020.6
20260904061700 22 90 1.6 1.6 0.00 0.00 0.00 66 1020.6
20260904060655 22 90 1.6 3.2 0.00 0.00 0.00 66 1020.6
20260904055650 22 90 1.6 3.2 0.00 0.00 0.00 66 1020.6
20260904054648 22 90 1.6 3.2 0.00 0.00 0.00 67 1020.6
20260904053642 21 90 3.2 3.2 0.00 0.00 0.00 66 1020.5
20260904052636 21 90 3.2 3.2 0.00 0.00 0.00 66 1020.3
20260904051635 21 90 1.6 3.2 0.00 0.00 0.00 66 1020.2
20260904050629 22 90 1.6 3.2 0.00 0.00 0.00 65 1020.2
20260904045626 22 90 1.6 3.2 0.00 0.00 0.00 66 1020.1
20260904044622 22 90 1.6 3.2 0.00 0.00 0.00 65 1020.0